STARLINK-2003 (47598 NORAD) Tracking and Keplerian Element Data

This shows tracking and keplerian element data for the satellite.

Feedback or suggestion? Click here.




ElementValue
Catalog47598
NameSTARLINK-2003
Epoch Orbit407
Epoch Day57.16667824
Epoch Year2021
RAAN16.3906
Inclination53.0538
Eccentricity0.0001335
Argument of Perigee78.8783
Mean Anonmoly272.7579
Mean Motion15.62852723
Decay Rate-0.00081676
L11 47598U 21009BC 21057.16667824 -.00081676 00000-0 -89166-3 0 9993
L22 47598 53.0538 16.3906 0001335 78.8783 272.7579 15.62852723 4078

Live tracking and technical data element details for STARLINK-2003 (NORAD 47598). STARLINK-2003 can be tracked NOW for your location showing map with azimuth and elevation plus other details from your city location.

Track the satellite on the map from your city or location and see movement details for azimuth, elevation, latitude, longitude, range, height, and movement on the map or in text.







IsCatalogInMostPopularTable: catalog: 47598, numindb: 2
Update: records affected: 1



GetName: 47598 STARLINK-2003

Hit Count: updated at: Fri, 26 Feb 2021 10:19:32 GMT